Tracking 18840 objects as of 18-November-2017
HD Live streaming from Space Station
objects crossing your sky now

NIMBUS 2 DEB

Track NIMBUS 2 DEB now!
10-day predictions


NORAD ID: 37888
Int'l Code: 1966-040AT
Perigee: 1,081.2 km
Apogee: 1,151.1 km
Inclination: 100.6 °
Period: 107.5 minutes
Semi major axis: 7487 km
RCS: 0.036 m2 (small)
Launch date: May 15, 1966
Source: United States (US)
Launch site: AIR FORCE WESTERN TEST RANGE (AFWTR)

Note: This is SATELLITE DEBRIS
aabbcc
Your satellite tracking list
Your tracking list is empty




NASA's NSSDC Master Catalog

Two Line Element Set (TLE):
1 37888U 66040AT  17321.49118375 +.00000796 +00000-0 +15394-2 0  9998
2 37888 100.6422 141.9757 0046741 106.7591 308.5853 13.40073207415285
Source of the keplerian elements: AFSPC